Regional Weather Roundup
Issued by NWS

Home | Current Version | Previous Version | Text Only | Print | Product List | Glossary Off
Versions: 1 2 3 4 5 6 7 8 9 10 11 12 13 14 15 16 17 18 19 20 21 22 23 24 25 26 27 28 29 30 31 32 33 34 35 36 37 38 39 40 41 42 43 44 45 46 47 48 49 50

637
ASUS45 KTFX 021310
RWRMT
MONTANA REGIONAL WEATHER ROUNDUP
NATIONAL WEATHER SERVICE GREAT FALLS MT
600 AM MST FRI DEC 02 2016

NOTE: "FAIR" INDICATES FEW OR NO CLOUDS BELOW 12000 FEET WITH NO
SIGNIFICANT WEATHER AND/OR OBSTRUCTIONS TO VISIBILITY.

MTZ001>007-043-021400-
WEST OF THE DIVIDE

CITY           SKY/WX    TMP DP  RH WIND       PRES   REMARKS
KALISPELL      CLOUDY    29  28  96 CALM      30.23R
MISSOULA       CLOUDY    29  27  92 CALM      30.28R
BUTTE          CLOUDY    18  14  84 CALM      30.17S
MULLAN PASS    CLOUDY    20  17  88 CALM      30.16R
ANACONDA         N/A     27  18  69 W7        30.19R WCI  19
DEER LODGE       N/A     25  21  86 CALM      30.23R
EUREKA           N/A     28  27  93 CALM      30.23F
HAMILTON         N/A     30  21  69 CALM      30.27R
LIBBY            N/A     28  28 100 CALM      30.25R
PLAINS           N/A     32  26  78 CALM      30.27R
RONAN            N/A     32  28  85 CALM      30.27R
$$

MTZ008-052>055-021400-
SOUTHWEST MONTANA

CITY           SKY/WX    TMP DP  RH WIND       PRES   REMARKS
BOZEMAN        CLOUDY    25  22  88 SE8       30.19S WCI  16
DILLON         PTCLDY    18  13  80 S5        30.17S
W YELLOWSTONE  CLOUDY    14  10  85 CALM      30.15S
ENNIS          CLOUDY    21  18  86 CALM      30.21S
THREE FORKS      N/A     22  22 100 CALM      30.16S VSB 0
TWIN BRIDGES     N/A     19  11  71 SE6       30.15R WCI  11
$$

MTZ009-010-012-014-046-048-049-054-021400-
EAST SLOPES AND CENTRAL MONTANA

CITY           SKY/WX    TMP DP  RH WIND       PRES   REMARKS
CUT BANK       CLEAR     17  14  88 CALM      30.08F
GREAT FALLS    CLEAR     20  17  88 SW12      30.12F WCI   8
HELENA         CLOUDY    31  18  58 W14G23    30.18R WCI  21
AUGUSTA          N/A     22  17  81 W6        30.09S WCI  14
BOWMANS CRNR     N/A     23  19  83 SW8       30.10S WCI  14
CHOTEAU          N/A     21  18  86 S5        30.11F
CONRAD           N/A     10   9  96 NW3       30.10S
FAIRFIELD        N/A     22  17  81 N2        30.10S
POWER            N/A     16  15  96 S5        30.10F FOG
RAYNESFORD       N/A     26  23  91 E1        30.12S
ULM              N/A     18  15  90 W6        30.14S WCI   9
$$

MTZ011-013-016-021-045-047-050-051-021400-
NORTH CENTRAL MONTANA

CITY           SKY/WX    TMP DP  RH WIND       PRES   REMARKS
HAVRE          CLEAR     22  21  96 SW10      30.13S WCI  11
LEWISTOWN      FLURRIES  27  25  92 SW8       30.12F WCI  19
N BAR RANCH    CLOUDY    28  23  80 W7        30.12S WCI  21
CHINOOK          N/A     25  25 100 CALM      30.13S
DENTON         MOCLDY    25  23  93 SW20G26   30.10S WCI  11
GEYSER         MOCLDY    26  24  93 W5        30.11S
GRASS RANGE    FLURRIES  29  26  90 W12       30.09S WCI  19
JUDITH GAP     LGT SNOW  25  24  95 SW7       30.12S FOG     WCI  18
ROY              N/A     28  24  88 MISG      30.10S
STANFORD       MOCLDY    22  21  96 SW7       30.11S WCI  14
WINIFRED       MOCLDY    27  26  97 MISG      30.11S
$$

MTZ017>020-022>027-061-062-021400-
NORTHEAST MONTANA

CITY           SKY/WX    TMP DP  RH WIND       PRES   REMARKS
GLASGOW        CLOUDY    26  23  88 W7        30.13S WCI  18
JORDAN           N/A     31  27  85 CALM      30.13S
SIDNEY         FLURRIES  23  21  92 CALM      30.16R
WOLF POINT     CLOUDY    29  25  85 CALM      30.15R
PLENTYWOOD       N/A     27  25  93 SE3       30.13S
POPLAR           N/A     25  21  86 SW5       30.16R
SCOBEY           N/A     26  20  78 S2        30.10R
$$

MTZ028>42-056>058-021400-
SOUTHCENTRAL AND SOUTHEAST MONTANA

CITY           SKY/WX    TMP DP  RH WIND       PRES   REMARKS
BAKER          CLOUDY    19  17  92 CALM      30.13R
BILLINGS       CLOUDY    29  21  72 SW9       30.16R WCI  20
LIVINGSTON     CLOUDY    29  20  69 SW15      30.15S WCI  18
MILES CITY     CLOUDY    23  19  85 SW7       30.16S WCI  15
BIG TIMBER     MOCLDY    28  21  74 W22       30.16S WCI  15
EKALAKA          N/A     21  17  84 CALM      30.08R
FORSYTH          N/A     23  21  93 CALM      30.17R
HARLOWTON      FLURRIES  26  24  89 NW6       30.13F WCI  20
LAUREL           N/A     26  11  53 CALM      30.13R
ROUNDUP          N/A     25  19  77 S9        30.05S WCI  16
$$

REGIONAL REPORTS...DAKOTAS

CITY           SKY/WX    TMP DP  RH WIND       PRES   REMARKS
WILLISTON      LGT SNOW  28  24  85 CALM      30.16S FOG
MINOT          CLOUDY    26  20  77 CALM      30.19R
DICKINSON      CLOUDY    21  19  92 S6        30.12R WCI  13
BEACH          FLURRIES  25  23  93 W3        30.16R
CROSBY         CLOUDY    27  27 100 S10       30.17S WCI  17
TIOGA          CLOUDY    25  25 100 E3        30.17R
WATFORD CITY   MOCLDY    25  25 100 CALM      30.16R
BISMARCK       CLOUDY    24  21  88 E5        30.22R
GRAND FORKS    CLOUDY    29  22  75 N6        30.21R WCI  23
FARGO          CLOUDY    29  21  72 N9        30.21R WCI  20
BUFFALO SD       N/A     23  21  92 W5        30.05R
RAPID CITY     CLOUDY    23  19  85 CALM      30.13R
$$

REGIONAL REPORTS...WYOMING/IDAHO/WASHINGTON

CITY           SKY/WX    TMP DP  RH WIND       PRES   REMARKS
GILLETTE       PTCLDY    23  20  88 W10       30.12R WCI  12
SHERIDAN       CLOUDY    28  24  85 S3        30.15S
BUFFALO WY     MOCLDY    29  15  56 W8        30.13R WCI  21
CODY           CLOUDY    24  15  68 SW3       30.15R
YELLOWSTONE LA   N/A     10   9  95 CALM      30.11R
IDAHO FALLS    FOG       18  15  88 CALM      30.23R VSB 1/4
SALMON         CLOUDY    27  21  80 NE3       30.26S
BOISE          PTCLDY    19  17  92 S3        30.31S
SPOKANE        FOG       29  29 100 CALM      30.30S VSB 1/16
$$

REGIONAL REPORTS...ALBERTA

CITY           SKY/WX    TMP DP  RH WIND       PRES   REMARKS
EDMONTON         N/A     21  21 100 S5        29.99F VSB 1/8
CALGARY        CLEAR     19  16  86 S5        30.00F
LETHBRIDGE     CLEAR     23  19  86 SW13      30.06S WCI  11
MEDICINE HAT   CLOUDY    27  25  93 VRB2      30.10F FOG
WATERTON GATE    N/A     32  16  51 SW23G37     N/A  WCI  19
CARDSTON         N/A     23  18  80 SW6         N/A  WCI  16
MILK RIVER       N/A     16  14  93 W6          N/A  WCI   7
$$

REGIONAL REPORTS...SASKATCHEWAN

CITY           SKY/WX    TMP DP  RH WIND       PRES   REMARKS
SWIFT CURRENT  MOCLDY    23  23 100 W6        30.06S WCI  16
REGINA         CLOUDY    27  25  93 W5        30.12S
SASKATOON      CLOUDY    28  23  80 W3        30.13S
CYPRESS HILLS    N/A     21  18  86 W7          N/A  WCI  13
VAL MARIE        N/A     21  19  93 SW8         N/A  WCI  12
ROCKGLEN         N/A     21  19  93 CALM        N/A
ASSINIBOIA       N/A     27  25  93 S3          N/A
$$




USA.gov is the U.S. government's official web portal to all federal, state and local government web resources and services.